Powrót do katalogu

COSMOS 2251 DEB

AktywnyLEO
NORAD 35711·DEBRIS·🇷🇺 Russia

Wystrzelony Jun 16, 1993 z Plesetsk Cosmodrome

Loading…

Następne Przeloty (najbliższe 24 godziny)

TLE

ŚwieżeSource: Space-Track

Epoka: Sep 14, 2026, 17:00 UTC

1 35711U 93036AQG 26257.70890414  .00000802  00000-0  15010-3 0  9993
2 35711  74.0451  50.5903 0082927  81.1011 279.9534 14.64430406918102

Śledź COSMOS 2251 DEB w czasie rzeczywistym z AllMySat

Download on the App Store